When you browse on this site, cookies collect data to enhance your experience and personalize the content and advertising you see.
Visit our Privacy Policy to learn more. By continuing to use the site, you agree to this use of cookies and data.

Hourly Weather Escaldes-Engordany

Today, 8 July, Wednesday

Time Temperature Precipitation Wind Pressure Humidity
00:00 +13°C° 0 mm 0 mps 641 mmHg 81%
01:00 +14°C° 0 mm 1 mps 641 mmHg 82%
02:00 +13°C° 0 mm 1 mps 640 mmHg 82%
03:00 +13°C° 0 mm 1 mps 640 mmHg 83%
04:00 +14°C° 0 mm 1 mps 641 mmHg 78%
05:00 +15°C° 0 mm 1 mps 641 mmHg 74%
06:00 +18°C° 0 mm 1 mps 642 mmHg 70%
07:00 +20°C° 0 mm 1 mps 642 mmHg 61%
08:00 +22°C° 0 mm 1 mps 643 mmHg 52%
09:00 +24°C° 0 mm 1 mps 644 mmHg 44%
10:00 +25°C° 0 mm 2 mps 644 mmHg 41%
11:00 +26°C° 0 mm 2 mps 644 mmHg 38%
12:00 +27°C° 0 mm 2 mps 645 mmHg 36%
13:00 +27°C° 0 mm 2 mps 644 mmHg 36%
14:00 +27°C° 0 mm 2 mps 644 mmHg 37%
15:00 +28°C° 0 mm 2 mps 644 mmHg 37%
16:00 +26°C° 0.2 mm 2 mps 643 mmHg 46%
17:00 +25°C° 0.2 mm 1 mps 643 mmHg 54%
18:00 +23°C° 0.2 mm 1 mps 643 mmHg 63%
19:00 +21°C° 0.2 mm 1 mps 642 mmHg 71%
20:00 +19°C° 0.2 mm 1 mps 642 mmHg 79%
21:00 +16°C° 0.2 mm 1 mps 641 mmHg 88%
22:00 +16°C° 0.1 mm 1 mps 641 mmHg 85%
23:00 +16°C° 0.1 mm 1 mps 641 mmHg 83%

Tomorrow, 9 July, Thursday

Time Temperature Precipitation Wind Pressure Humidity
00:00 +16°C° 0.1 mm 2 mps 641 mmHg 81%
01:00 +16°C° 0 mm 1 mps 641 mmHg 78%
02:00 +16°C° 0 mm 1 mps 641 mmHg 75%
03:00 +16°C° 0 mm 1 mps 641 mmHg 73%
04:00 +18°C° 0 mm 1 mps 641 mmHg 72%
05:00 +18°C° 0 mm 1 mps 641 mmHg 71%
06:00 +17°C° 0 mm 0 mps 642 mmHg 70%
07:00 +21°C° 0 mm 1 mps 643 mmHg 64%
08:00 +23°C° 0 mm 1 mps 643 mmHg 57%
09:00 +25°C° 0 mm 1 mps 644 mmHg 51%
10:00 +26°C° 0 mm 1 mps 645 mmHg 48%
11:00 +27°C° 0 mm 2 mps 645 mmHg 44%
12:00 +28°C° 0 mm 2 mps 645 mmHg 41%
13:00 +28°C° 0.5 mm 2 mps 645 mmHg 43%
14:00 +27°C° 0.5 mm 3 mps 644 mmHg 45%
15:00 +27°C° 0.5 mm 3 mps 644 mmHg 47%
16:00 +25°C° 0.9 mm 2 mps 643 mmHg 55%
17:00 +24°C° 0.9 mm 2 mps 642 mmHg 63%
18:00 +23°C° 0.9 mm 1 mps 642 mmHg 72%
19:00 +21°C° 0.7 mm 1 mps 642 mmHg 76%
20:00 +19°C° 0.7 mm 1 mps 641 mmHg 80%
21:00 +16°C° 0.7 mm 1 mps 641 mmHg 85%
22:00 +16°C° 0 mm 1 mps 641 mmHg 83%
23:00 +16°C° 0 mm 1 mps 641 mmHg 81%

Day after tomorrow, 10 July, Friday

Time Temperature Precipitation Wind Pressure Humidity
00:00 +15°C° 0 mm 1 mps 640 mmHg 80%
01:00 +15°C° 0.1 mm 1 mps 640 mmHg 80%
02:00 +15°C° 0.1 mm 1 mps 640 mmHg 80%
03:00 +15°C° 0.1 mm 1 mps 640 mmHg 80%
04:00 +15°C° 0.3 mm 1 mps 640 mmHg 81%
05:00 +16°C° 0.3 mm 1 mps 641 mmHg 82%
06:00 +16°C° 0.3 mm 0 mps 641 mmHg 82%
07:00 +20°C° 0.2 mm 1 mps 642 mmHg 75%
08:00 +21°C° 0.2 mm 1 mps 642 mmHg 68%
09:00 +23°C° 0.2 mm 1 mps 643 mmHg 61%
10:00 +23°C° 0.3 mm 2 mps 643 mmHg 58%
11:00 +24°C° 0.3 mm 2 mps 643 mmHg 55%
12:00 +24°C° 0.3 mm 3 mps 643 mmHg 53%
13:00 +24°C° 0.5 mm 3 mps 643 mmHg 55%
14:00 +24°C° 0.5 mm 2 mps 642 mmHg 58%
15:00 +23°C° 0.5 mm 2 mps 642 mmHg 61%
16:00 +21°C° 0.7 mm 2 mps 641 mmHg 67%
17:00 +21°C° 0.7 mm 1 mps 641 mmHg 74%
18:00 +20°C° 0.7 mm 1 mps 641 mmHg 80%
19:00 +19°C° 0.1 mm 1 mps 641 mmHg 83%
20:00 +16°C° 0.1 mm 1 mps 641 mmHg 87%
21:00 +15°C° 0.1 mm 1 mps 641 mmHg 90%
22:00 +15°C° 0 mm 1 mps 641 mmHg 91%
23:00 +15°C° 0 mm 1 mps 641 mmHg 92%

11 July, Saturday

Time Temperature Precipitation Wind Pressure Humidity
00:00 +15°C° 0 mm 1 mps 641 mmHg 93%
01:00 +14°C° 0 mm 1 mps 641 mmHg 93%
02:00 +14°C° 0 mm 1 mps 641 mmHg 93%
03:00 +14°C° 0 mm 1 mps 640 mmHg 94%
04:00 +14°C° 0 mm 1 mps 641 mmHg 93%
05:00 +15°C° 0 mm 1 mps 641 mmHg 92%
06:00 +15°C° 0 mm 1 mps 641 mmHg 91%
07:00 +16°C° 0 mm 1 mps 642 mmHg 85%
08:00 +19°C° 0 mm 1 mps 642 mmHg 79%
09:00 +20°C° 0 mm 1 mps 643 mmHg 73%
10:00 +21°C° 0.1 mm 1 mps 643 mmHg 71%
11:00 +21°C° 0.1 mm 1 mps 643 mmHg 68%
12:00 +21°C° 0.1 mm 2 mps 643 mmHg 66%
13:00 +22°C° 0.5 mm 1 mps 643 mmHg 69%
14:00 +22°C° 0.5 mm 1 mps 643 mmHg 71%
15:00 +21°C° 0.5 mm 1 mps 642 mmHg 74%
16:00 +21°C° 0.5 mm 1 mps 642 mmHg 78%
17:00 +20°C° 0.5 mm 1 mps 642 mmHg 81%
18:00 +19°C° 0.5 mm 1 mps 642 mmHg 84%
19:00 +18°C° 0.1 mm 1 mps 641 mmHg 87%
20:00 +15°C° 0.1 mm 0 mps 641 mmHg 91%
21:00 +14°C° 0.1 mm 0 mps 641 mmHg 94%
22:00 +14°C° 0 mm 0 mps 641 mmHg 94%
23:00 +15°C° 0 mm 1 mps 641 mmHg 95%

12 July, Sunday

Time Temperature Precipitation Wind Pressure Humidity
00:00 +14°C° 0 mm 1 mps 641 mmHg 95%
01:00 +14°C° 0 mm 1 mps 641 mmHg 95%
02:00 +14°C° 0 mm 1 mps 641 mmHg 95%
03:00 +14°C° 0 mm 1 mps 640 mmHg 95%
04:00 +15°C° 0 mm 1 mps 641 mmHg 92%
05:00 +16°C° 0 mm 1 mps 641 mmHg 88%
06:00 +16°C° 0 mm 0 mps 642 mmHg 85%
07:00 +19°C° 0 mm 1 mps 642 mmHg 77%
08:00 +21°C° 0 mm 1 mps 643 mmHg 69%
09:00 +23°C° 0 mm 2 mps 644 mmHg 61%
10:00 +24°C° 0.6 mm 2 mps 644 mmHg 62%
11:00 +24°C° 0.6 mm 2 mps 644 mmHg 63%
12:00 +24°C° 0.6 mm 2 mps 644 mmHg 63%
13:00 +24°C° 1.6 mm 2 mps 644 mmHg 65%
14:00 +24°C° 1.6 mm 1 mps 643 mmHg 66%
15:00 +24°C° 1.6 mm 1 mps 643 mmHg 67%
16:00 +23°C° 1.7 mm 1 mps 642 mmHg 72%
17:00 +22°C° 1.7 mm 1 mps 642 mmHg 77%
18:00 +21°C° 1.7 mm 1 mps 641 mmHg 82%
19:00 +20°C° 0.7 mm 1 mps 641 mmHg 83%
20:00 +18°C° 0.7 mm 1 mps 641 mmHg 84%
21:00 +16°C° 0.7 mm 1 mps 641 mmHg 85%
22:00 +16°C° 0.4 mm 1 mps 641 mmHg 87%
23:00 +15°C° 0.4 mm 1 mps 641 mmHg 89%

13 July, Monday

Time Temperature Precipitation Wind Pressure Humidity
00:00 +14°C° 0.4 mm 0 mps 641 mmHg 91%
01:00 +15°C° 0.1 mm 1 mps 641 mmHg 90%
02:00 +15°C° 0.1 mm 1 mps 640 mmHg 89%
03:00 +14°C° 0.1 mm 1 mps 640 mmHg 88%
04:00 +15°C° 0 mm 1 mps 640 mmHg 87%
05:00 +16°C° 0 mm 1 mps 641 mmHg 86%
06:00 +15°C° 0 mm 0 mps 641 mmHg 84%
07:00 +19°C° 0 mm 1 mps 642 mmHg 75%
08:00 +21°C° 0 mm 1 mps 643 mmHg 65%
09:00 +23°C° 0 mm 1 mps 643 mmHg 55%
10:00 +23°C° 0.3 mm 2 mps 643 mmHg 55%
11:00 +24°C° 0.3 mm 2 mps 643 mmHg 55%
12:00 +24°C° 0.3 mm 2 mps 643 mmHg 55%
13:00 +23°C° 1.1 mm 2 mps 643 mmHg 62%
14:00 +22°C° 1.1 mm 1 mps 642 mmHg 69%
15:00 +21°C° 1.1 mm 1 mps 641 mmHg 76%
16:00 +20°C° 1.1 mm 1 mps 641 mmHg 81%
17:00 +19°C° 1.1 mm 1 mps 640 mmHg 86%
18:00 +18°C° 1.1 mm 1 mps 640 mmHg 90%
19:00 +18°C° 0.5 mm 1 mps 640 mmHg 92%
20:00 +16°C° 0.5 mm 1 mps 640 mmHg 93%
21:00 +16°C° 0.5 mm 1 mps 640 mmHg 94%
22:00 +15°C° 0.3 mm 1 mps 640 mmHg 94%
23:00 +14°C° 0.3 mm 0 mps 640 mmHg 94%
Show more